Location: São Paulo
(23.5507°S, 46.6334°W)
Time: 13:52:11
(UTC-03:00)

Tiros 1 - Pass Details

Date: 13 February 2026
Orbit: 618 x 649 km, 48.4° (Epoch: 11 March)

Event Time Altitude Azimuth Distance (km) Brightness Sun altitude
Rises 20:35:17 0° 316° (NW) 2,910 10.7 -23.8°
Reaches altitude 10° 20:37:34 10° 316° (NW) 2,013 9.8 -24.3°
Enters shadow 20:41:47 74° 312° (NW) 670 7.1 -25.2°
Maximum altitude 20:42:13 89° 231° (SW) 646 - -25.2°
Drops below altitude 10° 20:46:58 10° 136° (SE) 2,051 - -26.2°
Sets 20:49:19 0° 135° (SE) 2,970 - -26.7°
